Weather History for KRXE - March, 2014

Change the Weather History Date:

Thursday, March 6, 2014

  Actual Average Record
Temperature  
Mean Temperature 41 °F 30 °F  
Max Temperature 48 °F 40 °F 51 °F (2000)
Min Temperature 34 °F 20 °F 0 °F (2008)
Degree Days  
Heating Degree Days 24 35  
Month to date heating degree days 179 219  
Since 1 July heating degree days 5994 6192  
Cooling Degree Days 0 0  
Month to date cooling degree days 0 0  
Year to date cooling degree days 0 0  
Moisture  
Dew Point 35 °F    
Average Humidity 75    
Maximum Humidity 92    
Minimum Humidity 58    
Precipitation  
Precipitation 0.06 in 0.02 in - ()
Month to date precipitation 0.26 0.17  
Year to date precipitation 1.66 1.74  
Sea Level Pressure  
Sea Level Pressure 29.86 in    
Wind  
Wind Speed 18 mph (South)    
Max Wind Speed 29 mph    
Max Gust Speed 39 mph    
Visibility 10 miles    
Events Rain    
T = Trace of Precipitation, MM = Missing Value Source: NWS Daily Summary

Daily Weather History Graph

Daily Weather History Graph

Search for Another Location

Airport or City:

Trip Planner

Search our weather history database for the weather conditions in past years. The results will help you decide how hot, cold, wet, or windy it might be!

Date:

Astronomy

Mar. 06, 2014 Rise Set
Actual Time 6:55 AM MST 6:22 PM MST
Civil Twilight 6:26 AM MST 6:51 PM MST
Nautical Twilight 5:53 AM MST 7:24 PM MST
Astronomical Twilight 5:19 AM MST 7:57 PM MST
Moon 9:54 AM MST (3/6) No Moon Set
Length of Visible Light 12h 24m
Length of Day
11h 27m
Waxing Crescent, 33% of the Moon is Illuminated
Mar 6
Waxing Crescent
Mar 8
First Quarter
Mar 16
Full
Mar 23
Last Quarter
Mar 30
New

Hourly Weather History & Observations

Time (MST) Temp. Windchill Dew Point Humidity Pressure Visibility Wind Dir Wind Speed Gust Speed Precip Events Conditions
12:53 AM 44.1 °F 37.4 °F 30.0 °F 58% 29.93 in 10.0 mi South 13.8 mph 23.0 mph N/A   Overcast
1:53 AM 44.1 °F 37.7 °F 30.9 °F 60% 29.91 in 10.0 mi South 12.7 mph - 0.00 in Rain Light Rain
2:53 AM 44.1 °F 36.8 °F 30.9 °F 60% 29.90 in 10.0 mi South 16.1 mph - 0.00 in   Overcast
3:53 AM 43.0 °F 36.4 °F 33.1 °F 68% 29.87 in 10.0 mi South 12.7 mph 20.7 mph 0.00 in Rain Light Rain
4:53 AM 42.1 °F 34.5 °F 34.0 °F 73% 29.87 in 10.0 mi South 15.0 mph 21.9 mph 0.01 in   Overcast
5:53 AM 42.1 °F 32.3 °F 34.0 °F 73% 29.86 in 10.0 mi South 24.2 mph 31.1 mph N/A   Overcast
6:53 AM 42.1 °F 32.8 °F 35.1 °F 76% 29.85 in 10.0 mi South 21.9 mph 28.8 mph 0.01 in Rain Light Rain
7:53 AM 41.0 °F 31.1 °F 36.0 °F 82% 29.86 in 7.0 mi South 23.0 mph 33.4 mph 0.04 in Rain Light Rain
8:40 AM 41.0 °F 32.8 °F 37.0 °F 86% 29.87 in 10.0 mi South 16.1 mph 24.2 mph 0.00 in Rain Light Rain
8:53 AM 42.1 °F 33.3 °F 37.0 °F 82% 29.86 in 10.0 mi South 19.6 mph 29.9 mph 0.00 in   Overcast
9:53 AM 41.0 °F 31.9 °F 36.0 °F 82% 29.85 in 10.0 mi South 19.6 mph 27.6 mph N/A   Overcast
10:13 AM 42.1 °F 32.6 °F 36.0 °F 79% 29.84 in 10.0 mi South 23.0 mph 34.5 mph N/A   Overcast
10:53 AM 43.0 °F 33.3 °F 36.0 °F 76% 29.81 in 10.0 mi South 25.3 mph 35.7 mph N/A   Mostly Cloudy
11:53 AM 45.0 °F 37.1 °F 36.0 °F 71% 29.82 in 10.0 mi SSW 19.6 mph 32.2 mph 0.00 in   Overcast
12:53 PM 45.0 °F 36.9 °F 37.9 °F 76% 29.79 in 10.0 mi South 20.7 mph 28.8 mph 0.00 in   Overcast
1:53 PM 48.0 °F - 39.0 °F 71% 29.76 in 10.0 mi SSW 24.2 mph 34.5 mph N/A   Scattered Clouds
2:20 PM 46.9 °F - 39.0 °F 74% 29.79 in 10.0 mi SSW 24.2 mph 33.4 mph N/A   Mostly Cloudy
2:36 PM 46.0 °F 38.0 °F 37.9 °F 73% 29.80 in 10.0 mi SSW 21.9 mph 29.9 mph N/A   Overcast
2:53 PM 46.0 °F 37.8 °F 37.0 °F 71% 29.78 in 10.0 mi SSW 23.0 mph 33.4 mph N/A   Overcast
3:53 PM 45.0 °F 37.4 °F 35.1 °F 68% 29.80 in 10.0 mi SSW 18.4 mph 25.3 mph N/A   Overcast
4:53 PM 46.0 °F 38.3 °F 36.0 °F 68% 29.80 in 10.0 mi SSW 20.7 mph 29.9 mph N/A   Overcast
5:53 PM 41.0 °F 32.8 °F 36.0 °F 82% 29.82 in 10.0 mi South 16.1 mph 24.2 mph N/A   Partly Cloudy
6:53 PM 41.0 °F 32.5 °F 35.1 °F 79% 29.85 in 10.0 mi SSW 17.3 mph 27.6 mph N/A   Mostly Cloudy
7:53 PM 39.9 °F 31.4 °F 35.1 °F 83% 29.88 in 10.0 mi SSW 16.1 mph 24.2 mph N/A   Clear
8:53 PM 37.9 °F 31.5 °F 35.1 °F 89% 29.91 in 10.0 mi South 9.2 mph - N/A   Scattered Clouds
9:04 PM 37.9 °F 30.9 °F 35.1 °F 89% 29.90 in 10.0 mi South 10.4 mph - N/A   Mostly Cloudy
9:24 PM 37.9 °F 30.9 °F 34.0 °F 86% 29.91 in 10.0 mi South 10.4 mph - N/A   Scattered Clouds
9:53 PM 37.0 °F 28.5 °F 33.1 °F 86% 29.93 in 10.0 mi South 13.8 mph - N/A   Partly Cloudy
10:53 PM 36.0 °F 26.7 °F 32.0 °F 86% 29.94 in 10.0 mi SSW 15.0 mph 23.0 mph N/A   Clear
11:53 PM 34.0 °F 25.5 °F 30.9 °F 89% 29.94 in 10.0 mi South 11.5 mph - N/A   Clear